Location: Newark
(46.0167°N, 11.3000°E)
Time: 01:57:49
(UTC+00:00)

N. Korean satellite - Visible Passes

Search period start: 15 November 2019 00:00
Search period end: 25 November 2019 00:00
Orbit: 456 x 506 km, 97.2° (Epoch: 14 November)

Date Brightness Start Highest point End Pass type
(mag) Time Alt. Az. Time Alt. Az. Time Alt. Az.
15 Nov 8.4 04:43:33 10° NNE 04:47:01 36° E 04:50:26 10° SSE visible
15 Nov 8.8 16:54:38 10° SSW 16:57:50 29° W 17:01:06 10° NNW visible
16 Nov 9.6 04:18:47 10° NE 04:21:29 19° E 04:24:09 10° SE visible
16 Nov 7.2 16:28:47 10° S 16:32:22 61° W 16:36:02 10° NNW visible
17 Nov 6.6 05:25:59 10° N 05:29:41 67° WNW 05:33:20 10° SSW visible
18 Nov 7.3 05:00:37 10° NNE 05:04:18 59° E 05:07:56 10° S visible
18 Nov 9.6 17:12:30 10° SW 17:15:10 19° W 17:17:53 10° NW visible
19 Nov 8.8 04:35:33 10° NNE 04:38:50 29° E 04:42:04 10° SSE visible
19 Nov 8.4 16:46:14 10° SSW 16:49:38 37° W 16:53:06 10° NNW visible
20 Nov 9.9 04:10:59 10° NE 04:13:15 15° E 04:15:30 10° SE visible
20 Nov 7.0 05:43:20 10° N 05:46:51 40° WNW 05:50:17 10° SW visible
20 Nov 6.8 16:20:33 10° S 16:24:11 77° W 16:27:54 10° NNW visible
21 Nov 6.5 05:17:47 10° N 05:21:31 83° WNW 05:25:10 10° SSW visible
21 Nov 10.1 17:30:56 10° WSW 17:32:32 12° W 17:34:09 10° WNW visible
22 Nov 7.8 04:52:30 10° NNE 04:56:06 46° E 04:59:37 10° S visible
22 Nov 9.3 17:03:56 10° SSW 17:06:55 23° W 17:09:57 10° NW visible
23 Nov 9.2 04:27:33 10° NE 04:30:35 23° E 04:33:34 10° SSE visible
23 Nov 7.8 16:37:51 10° S 16:41:23 46° W 16:45:00 10° NNW visible
24 Nov 10.1 04:03:21 10° ENE 04:04:57 12° E 04:06:33 10° ESE visible
24 Nov 6.8 05:35:04 10° N 05:38:40 50° WNW 05:42:11 10° SSW visible
24 Nov 6.6 16:12:18 10° SSE 16:15:58 84° ENE 16:19:42 10° N visible
